Location: Kernascl�den
(48.0062°N, 3.3198°W)
Time: 16:53:56
(UTC+00:00)

OPS 8737 - Pass Details

Date: 21 January 2021
Orbit: 354 x 1719 km, 63.3° (Epoch: 10 February)

Event Time Altitude Azimuth Distance (km) Brightness Sun altitude
Rises 17:33:54 0° 322° (NW) 2,238 8.2 -6.5°
Reaches altitude 10° 17:35:46 10° 327° (NNW) 1,446 7.1 -6.7°
Maximum altitude 17:38:49 57° 47° (NE) 540 4.5 -7.2°
Drops below altitude 10° 17:42:44 10° 128° (SE) 1,842 7.2 -7.8°
Sets 17:45:21 0° 132° (SE) 2,946 8.3 -8.2°
